Regional Weather Roundup
Issued by NWS Charleston, WV

Home | Current Version | Previous Version | Graphics & Text | Print | Product List | Glossary On
Versions: 1 2 3 4 5 6 7 8 9 10 11 12 13 14 15 16 17 18 19 20 21 22 23 24 25 26 27 28 29 30 31 32 33 34 35 36 37 38 39 40 41 42 43 44 45 46 47 48 49 50
000
ASUS41 KRLX 271010
RWRRLX
West Virginia Regional Weather Roundup
National Weather Service Charleston WV
600 AM EDT MON JUL 27 2015

Note: "fair" indicates few or no clouds below 12,000 feet with no
significant weather and/or obstructions to visibility.

WVZ003-271100-
Northern Panhandle of West Virginia

CITY           SKY/WX    TMP DP  RH WIND       PRES   REMARKS
WHEELING       FOG       65  64  97 CALM      30.00R VSB<1/4
$$

WVZ009-271100-
Northwest West Virginia

CITY           SKY/WX    TMP DP  RH WIND       PRES   REMARKS
PARKERSBURG    MOCLDY    72  70  93 CALM      29.99S FOG
$$

WVZ006-271100-
Western West Virginia

CITY           SKY/WX    TMP DP  RH WIND       PRES   REMARKS
HUNTINGTON     CLOUDY    73  72  96 E3        29.95F
$$

WVZ015-271100-
West Central West Virginia

CITY           SKY/WX    TMP DP  RH WIND       PRES   REMARKS
CHARLESTON     MOCLDY    72  70  93 CALM      29.97S FOG
$$

WVZ022-031-271100-
North Central West Virginia

CITY           SKY/WX    TMP DP  RH WIND       PRES   REMARKS
CLARKSBURG     MOCLDY    72  69  90 CALM      29.99S
MORGANTOWN     PTCLDY    72  67  84 CALM      30.01R HAZE
$$

WVZ025-035-042-045-271100-
Southern West Virginia

CITY           SKY/WX    TMP DP  RH WIND       PRES   REMARKS
BECKLEY        CLOUDY    69  64  84 S6        30.06S
LOGAN            N/A     73  68  83 CALM      29.97F
BLUEFIELD      CLOUDY    70  65  84 CALM      30.10R
LEWISBURG      CLOUDY    68  65  90 CALM      30.06R
$$

WVZ047-271100-
Northern Mountains of West Virginia

CITY           SKY/WX    TMP DP  RH WIND       PRES   REMARKS
ELKINS         CLOUDY    69  66  90 CALM      30.04F
$$

WVZ052-271100-
Eastern Panhandle of West Virginia

CITY           SKY/WX    TMP DP  RH WIND       PRES   REMARKS
MARTINSBURG    PTCLDY    68  68 100 CALM      29.98R FOG
PETERSBURG     MOCLDY   N/A N/A N/A CALM      30.00S HAZE
$$


USA.gov is the U.S. government's official web portal to all federal, state and local government web resources and services.